Date,TemperatureHighF,TemperatureAvgF,TemperatureLowF,DewpointHighF,DewpointAvgF,DewpointLowF,HumidityHigh,HumidityAvg,HumidityLow,PressureMaxIn,PressureMinIn,WindSpeedMaxMPH,WindSpeedAvgMPH,GustSpeedMaxMPH,PrecipitationSumIn
2013-1-1,33.8,28.7,23.5,26.0,22.6,18.0,86,78,67,30.39,30.13,13,5,0,0.00
2013-1-2,47.2,30.9,17.6,27.0,21.8,16.0,92,72,31,30.42,30.27,8,2,0,0.00
2013-1-3,44.5,32.5,22.1,25.0,21.8,19.0,88,67,38,30.55,30.40,10,2,0,0.00
2013-1-4,43.6,34.7,24.7,31.0,25.8,20.0,88,71,50,30.53,30.31,9,2,0,0.00
2013-1-5,53.3,41.0,34.3,32.0,26.2,14.0,86,60,21,30.40,30.18,13,3,0,0.00
2013-1-6,55.3,39.3,28.3,29.0,24.8,22.0,81,59,30,30.49,30.34,7,2,0,0.00
2013-1-7,48.7,36.0,24.3,29.0,24.7,20.0,85,65,42,30.34,30.10,7,1,0,0.00
2013-1-8,51.7,39.9,29.0,40.0,32.9,25.0,91,77,54,30.19,30.03,11,2,0,0.00
2013-1-9,46.6,42.3,37.9,43.0,37.4,32.0,95,83,64,30.35,30.07,24,8,0,0.39
2013-1-10,51.9,45.9,41.0,48.0,44.6,40.0,97,95,86,30.07,29.83,15,3,0,0.15
2013-1-11,69.1,51.4,38.2,48.0,41.4,27.0,97,73,39,29.84,29.63,22,4,0,0.02
2013-1-12,50.5,36.9,25.7,30.0,22.0,14.0,78,57,31,30.16,29.83,23,8,0,0.00
2013-1-13,33.0,25.9,20.9,20.0,12.4,9.0,76,58,39,30.42,30.16,14,5,0,0.00
2013-1-14,34.5,26.7,18.4,16.0,13.5,11.0,77,59,39,30.48,30.33,11,3,0,0.00
2013-1-15,36.8,29.0,21.7,17.0,14.9,10.0,77,57,34,30.38,30.27,7,1,0,0.00
2013-1-16,53.0,33.4,15.6,32.0,22.8,13.0,90,68,38,30.32,30.17,8,1,0,0.00
2013-1-17,55.9,43.1,35.4,32.0,29.5,27.0,76,61,37,30.58,30.31,11,2,0,0.00
2013-1-18,61.7,43.1,27.6,34.0,30.1,25.0,91,64,33,30.51,30.18,15,2,0,0.00
2013-1-19,62.6,43.3,29.6,35.0,30.9,27.0,91,66,32,30.26,30.11,6,1,0,0.00
2013-1-20,64.0,47.6,32.5,34.0,28.2,24.0,71,50,25,30.26,30.07,16,3,0,0.00
2013-1-21,44.1,33.7,24.9,27.0,15.9,9.0,64,50,33,30.47,30.23,19,4,0,0.00
2013-1-22,62.7,41.7,21.2,38.0,28.0,16.0,84,61,35,30.32,30.13,10,2,0,0.00
2013-1-23,66.5,47.6,29.9,44.0,37.6,28.0,92,71,35,30.24,30.08,10,1,0,0.00
2013-1-24,46.1,37.5,32.9,44.0,31.2,26.0,91,78,70,30.30,30.12,14,5,0,0.00
2013-1-25,51.9,38.5,26.5,30.0,27.4,23.0,87,67,42,30.29,30.16,11,3,0,0.00
2013-1-26,55.6,41.4,25.1,44.0,32.4,22.0,90,72,47,30.25,29.98,15,4,0,0.00
2013-1-27,76.4,60.1,46.5,56.0,48.0,38.0,97,69,33,30.02,29.72,14,4,0,0.00
2013-1-28,77.8,62.6,45.1,59.0,45.9,38.0,78,56,34,29.90,29.66,19,4,0,0.00
2013-1-29,65.7,54.4,38.9,58.0,40.0,30.0,88,62,27,29.74,29.50,21,6,0,0.00
2013-1-30,48.9,38.9,30.3,31.0,20.1,9.0,75,50,20,30.14,29.74,21,8,0,0.00
2013-1-31,65.4,39.0,21.5,27.0,20.7,14.0,79,53,17,30.39,30.07,27,4,0,0.00
2013-2-1,48.5,33.0,17.3,25.0,18.7,13.0,84,58,36,30.46,30.17,13,2,0,0.00
2013-2-2,62.7,45.4,31.5,35.0,25.3,21.0,73,50,21,30.37,30.15,8,2,0,0.00
2013-2-3,65.9,48.1,28.3,30.0,24.8,17.0,80,46,15,30.35,29.85,8,1,0,0.00
2013-2-4,65.3,54.6,38.6,41.0,31.0,24.0,70,44,21,29.97,29.76,2,0,0,0.00
2013-2-5,67.5,49.1,31.3,51.0,31.6,23.0,92,56,22,30.04,29.93,12,3,0,0.00
2013-2-6,70.1,57.1,50.4,54.0,51.1,47.0,97,82,51,30.00,29.74,19,3,0,0.00
2013-2-7,60.2,54.0,40.6,56.0,43.3,27.0,97,70,34,30.23,29.69,23,7,0,0.00
2013-2-8,56.4,42.1,27.1,31.0,23.3,12.0,83,53,17,30.34,30.10,14,2,0,0.00
2013-2-9,54.0,45.7,37.1,53.0,41.0,26.0,97,84,62,30.10,29.59,25,10,0,0.02
2013-2-10,59.9,48.8,36.1,41.0,25.2,20.0,65,42,22,30.05,29.69,12,2,0,0.00
2013-2-11,51.7,42.3,33.2,26.0,24.0,22.0,66,50,33,30.25,30.05,12,2,0,0.00
2013-2-12,39.6,34.7,30.9,33.0,30.9,25.0,95,87,56,30.16,30.00,16,4,0,0.64
2013-2-13,50.9,35.1,22.9,33.0,26.9,21.0,94,75,33,30.17,30.03,4,0,0,0.04
2013-2-14,57.5,42.8,29.1,39.0,32.5,25.0,87,69,45,30.26,30.03,11,0,0,0.00
2013-2-15,43.8,37.4,33.1,35.0,25.2,19.0,81,62,43,30.50,30.27,11,2,0,0.00
2013-2-16,58.1,40.0,27.4,35.0,29.4,26.0,96,70,31,30.47,30.10,6,0,0,0.00
2013-2-17,72.4,49.8,30.1,33.0,27.2,19.0,86,50,13,30.09,29.68,1,0,0,0.00
2013-2-18,57.3,48.8,36.8,42.0,29.0,22.0,84,49,28,30.19,29.60,0,0,0,0.00
2013-2-19,53.8,42.0,27.3,29.0,24.2,21.0,81,52,29,30.35,30.11,0,0,0,0.00
2013-2-20,47.7,39.4,34.8,39.0,35.9,25.0,100,88,41,30.12,29.77,22,6,0,0.33
2013-2-21,43.6,33.9,26.2,38.0,30.4,19.0,96,87,74,30.10,29.71,14,4,0,0.62
2013-2-22,40.2,29.9,20.6,24.0,20.0,16.0,84,67,52,30.24,30.07,10,1,0,0.00
2013-2-23,46.8,34.8,24.9,34.0,28.5,22.0,91,79,57,30.16,29.88,2,0,0,0.00
2013-2-24,63.8,44.8,31.9,45.0,36.1,29.0,92,74,47,29.87,29.57,0,0,0,0.32
2013-2-25,39.7,35.0,32.5,38.0,33.5,30.0,96,93,89,29.85,29.53,0,0,0,0.40
2013-2-26,45.2,35.4,27.2,33.0,28.3,24.0,92,76,55,30.00,29.85,0,0,0,0.02
2013-2-27,47.7,38.4,28.7,32.0,27.5,25.0,86,66,46,30.32,29.98,0,0,0,0.00
2013-2-28,52.7,39.1,26.8,28.0,24.9,19.0,90,62,28,30.36,30.26,0,0,0,0.00
2013-3-1,51.2,38.7,28.9,32.0,28.5,25.0,86,69,43,30.41,30.25,0,0,0,0.00
2013-3-2,63.4,42.8,24.8,40.0,31.7,23.0,93,69,35,30.48,30.18,4,0,0,0.00
2013-3-3,78.1,53.7,32.7,39.0,32.2,27.0,89,53,16,30.17,29.53,2,0,0,0.00
2013-3-4,71.0,59.4,42.5,41.0,35.1,27.0,69,42,28,30.10,29.46,0,0,0,0.00
2013-3-5,53.3,42.7,32.0,30.0,17.6,10.0,62,40,18,30.47,30.12,0,0,0,0.00
2013-3-6,51.3,38.7,24.6,27.0,23.8,18.0,83,57,36,30.48,30.16,5,0,0,0.00
2013-3-7,69.7,52.3,35.7,40.0,28.9,24.0,65,44,22,30.15,29.96,11,1,0,0.00
2013-3-8,61.1,55.9,48.0,57.0,50.6,40.0,92,82,61,30.03,29.81,0,0,0,0.00
2013-3-9,70.6,61.4,47.9,60.0,43.9,23.0,96,61,22,29.82,29.57,12,0,0,0.14
2013-3-10,47.7,42.2,34.9,36.0,25.0,17.0,72,53,31,30.17,29.75,0,0,0,0.00
2013-3-11,65.8,43.4,24.0,34.0,24.6,17.0,79,51,22,30.16,29.93,7,0,0,0.00
2013-3-12,58.0,47.8,39.2,37.0,32.2,27.0,79,55,39,30.37,29.94,14,2,0,0.00
2013-3-13,66.8,48.5,31.5,39.0,34.9,28.0,89,63,31,30.46,30.27,15,3,0,0.00
2013-3-14,74.3,56.4,39.7,46.0,40.1,35.0,86,58,30,30.28,30.08,12,3,0,0.00
2013-3-15,86.3,62.1,40.2,49.0,41.8,35.0,86,54,16,30.08,29.71,14,4,19,0.00
2013-3-16,67.3,58.1,45.9,49.0,43.1,37.0,79,58,47,29.81,29.65,21,7,28,0.00
2013-3-17,56.2,46.3,37.0,43.0,36.1,31.0,79,68,55,29.89,29.64,16,7,30,0.00
2013-3-18,61.3,49.8,39.5,41.0,33.2,25.0,91,58,26,30.02,29.62,21,6,26,0.00
2013-3-19,58.4,48.6,36.6,42.0,35.0,27.0,77,60,52,30.23,29.98,18,4,24,0.00
2013-3-20,61.6,49.6,34.7,38.0,30.8,25.0,77,52,27,30.37,29.96,12,5,19,0.00
2013-3-21,80.4,58.6,46.3,51.0,38.1,28.0,74,49,20,29.95,29.40,27,11,39,0.00
2013-3-22,47.2,42.7,37.8,39.0,35.8,34.0,90,77,64,29.92,29.55,22,9,33,0.00
2013-3-23,46.6,42.0,35.2,42.0,38.5,29.0,94,87,79,30.03,29.70,18,7,27,0.00
2013-3-24,45.1,36.4,29.0,29.0,19.3,12.0,80,53,26,30.29,30.04,20,9,29,0.00
2013-3-25,48.1,36.9,25.8,21.0,15.9,12.0,71,45,26,30.48,30.29,18,5,23,0.00
2013-3-26,58.8,40.6,20.6,23.0,18.4,13.0,77,45,21,30.50,30.20,15,5,23,0.00
2013-3-27,75.5,53.8,38.2,41.0,31.5,23.0,62,45,25,30.20,29.95,23,8,24,0.00
2013-3-28,76.6,60.4,45.1,52.0,46.7,40.0,87,63,38,30.07,29.94,15,6,22,0.00
2013-3-29,71.5,62.7,51.8,60.0,54.8,50.0,95,76,59,30.04,29.89,17,6,24,0.00
2013-3-30,79.3,64.4,49.7,59.0,53.4,49.0,97,72,35,29.96,29.82,13,3,18,0.00
2013-3-31,68.8,60.0,52.3,57.0,47.1,40.0,87,65,36,30.04,29.83,24,6,47,0.20
2013-4-1,74.4,55.5,41.8,51.0,43.7,37.0,84,67,39,30.07,29.93,24,7,37,0.00
2013-4-2,41.6,38.8,37.0,38.0,35.4,32.0,95,87,74,30.19,30.06,23,11,32,0.07
2013-4-3,38.7,37.2,36.3,37.0,35.7,35.0,100,94,90,30.28,30.16,17,6,21,0.20
2013-4-4,49.6,40.5,35.4,41.0,36.4,34.0,95,86,70,30.30,30.19,11,3,12,0.06
2013-4-5,60.5,42.6,31.2,47.0,38.4,30.0,97,86,62,30.25,29.88,13,4,21,0.01
2013-4-6,72.7,60.7,47.8,51.0,47.9,45.0,94,66,41,29.87,29.78,13,6,23,0.00
2013-4-7,82.1,67.6,51.6,62.0,56.7,49.0,96,71,42,29.81,29.54,19,8,25,0.00
2013-4-8,85.8,70.7,57.8,63.0,60.3,56.0,95,73,41,29.56,29.40,32,12,36,0.00
2013-4-9,76.0,57.0,32.2,64.0,49.9,27.0,90,78,53,29.96,29.47,26,13,38,0.27
2013-4-10,47.7,35.7,27.7,29.0,25.5,22.0,88,69,39,30.13,29.83,21,4,30,0.06
2013-4-11,63.0,43.8,27.8,38.0,27.6,20.0,83,56,27,30.07,29.77,13,4,20,0.00
2013-4-12,63.9,51.3,42.9,46.0,39.1,33.0,81,64,48,30.05,29.87,13,6,19,0.00
2013-4-13,74.3,61.9,45.0,50.0,43.6,39.0,83,55,29,29.95,29.64,19,9,26,0.00
2013-4-14,88.4,68.6,50.7,56.0,47.2,34.0,89,53,15,29.64,29.40,18,8,38,0.00
2013-4-15,71.8,61.9,52.4,52.0,41.8,32.0,69,48,38,29.72,29.52,33,12,36,0.00
2013-4-16,57.3,51.0,47.2,48.0,42.6,37.0,92,73,63,29.95,29.71,25,12,37,0.00
2013-4-17,58.0,51.3,43.2,57.0,49.4,41.0,96,93,87,29.86,29.55,24,8,26,0.17
2013-4-18,51.4,43.3,36.5,41.0,29.1,23.0,93,60,35,30.22,29.76,25,10,32,0.00
2013-4-19,68.1,49.5,30.1,32.0,22.1,13.0,68,39,12,30.30,30.06,16,4,21,0.00
2013-4-20,71.5,55.4,38.1,37.0,31.5,29.0,81,45,22,30.07,29.86,27,9,35,0.00
2013-4-21,71.0,58.8,46.4,50.0,43.6,33.0,78,59,42,30.08,29.97,20,10,26,0.00
2013-4-22,82.3,65.2,49.9,58.0,53.0,47.0,89,68,38,30.02,29.62,26,12,36,0.00
2013-4-23,57.0,39.1,36.2,48.0,31.8,25.0,90,75,64,30.35,29.78,23,11,34,0.00
2013-4-24,60.0,44.3,28.7,31.0,27.1,24.0,87,56,27,30.40,30.25,13,5,20,0.00
2013-4-25,67.6,54.2,35.2,40.0,31.9,25.0,83,48,21,30.36,30.08,23,6,27,0.00
2013-4-26,79.7,65.4,58.5,61.0,51.3,40.0,85,61,46,30.07,29.81,23,11,32,0.00
2013-4-27,77.4,63.0,53.5,55.0,49.7,44.0,90,66,31,30.14,29.97,17,6,20,0.00
2013-4-28,89.3,67.5,47.3,56.0,45.9,38.0,96,55,17,29.99,29.71,16,4,19,0.00
2013-4-29,92.0,73.9,54.7,59.0,47.8,32.0,95,51,13,29.77,29.58,18,7,26,0.00
2013-4-30,89.1,74.9,60.4,60.0,56.9,51.0,88,57,28,29.65,29.54,25,11,35,0.00
2013-5-1,81.7,64.1,42.9,64.0,53.7,36.0,91,70,41,30.18,29.61,23,10,37,0.00
2013-5-2,52.6,43.9,38.7,36.0,32.6,26.0,89,67,37,30.50,30.18,31,12,44,0.11
2013-5-3,68.8,51.9,34.4,31.0,24.6,17.0,74,41,14,30.47,30.01,17,6,23,0.00
2013-5-4,70.0,54.0,36.6,39.0,25.9,7.0,78,42,9,30.10,29.95,20,6,27,0.00
2013-5-5,70.1,54.3,40.7,47.0,41.5,36.0,82,64,40,30.22,30.05,12,4,17,0.00
2013-5-6,75.7,61.2,43.4,49.0,45.7,41.0,92,61,33,30.13,29.97,13,2,16,0.00
2013-5-7,84.0,69.4,53.8,51.0,46.9,43.0,82,49,24,30.05,29.79,18,6,26,0.00
2013-5-8,86.2,72.4,57.5,62.0,55.5,48.0,75,57,40,29.83,29.67,16,6,28,0.00
2013-5-9,77.9,67.4,58.4,63.0,59.5,55.0,98,77,54,29.92,29.74,22,6,26,0.00
2013-5-10,71.7,63.7,56.8,60.0,53.2,49.0,90,71,48,30.10,29.85,21,5,33,0.14
2013-5-11,80.8,65.2,51.3,54.0,47.6,40.0,91,58,24,30.23,30.10,19,6,25,0.00
2013-5-12,82.1,64.9,44.8,46.0,41.9,37.0,81,48,24,30.26,30.00,17,4,22,0.00
2013-5-13,93.7,75.2,50.7,49.0,42.1,33.0,80,36,12,30.09,29.95,11,4,20,0.00
2013-5-14,89.9,77.0,58.6,56.0,47.3,38.0,57,37,22,30.00,29.77,14,5,30,0.00
2013-5-15,79.8,69.3,64.1,65.0,58.4,50.0,94,69,47,29.84,29.65,15,4,18,0.05
2013-5-16,82.0,68.3,58.7,62.0,59.7,57.0,96,77,44,29.80,29.70,19,5,19,0.00
2013-5-17,87.0,72.2,61.1,73.0,66.8,58.0,97,84,55,29.80,29.68,14,6,21,0.00
2013-5-18,99.7,78.4,67.7,72.0,65.8,54.0,94,70,22,29.74,29.49,16,7,26,0.28
2013-5-19,96.4,82.6,71.1,68.0,48.8,26.0,83,42,9,29.58,29.46,20,6,31,0.01
2013-5-20,95.2,77.0,59.5,59.0,49.9,32.0,78,44,11,29.70,29.52,22,5,28,0.00
2013-5-21,77.6,67.1,54.7,61.0,49.2,43.0,84,55,30,29.91,29.68,18,6,31,0.15
2013-5-22,88.4,71.5,51.8,53.0,48.7,42.0,93,52,20,29.90,29.73,17,5,27,0.00
2013-5-23,87.2,74.3,64.1,67.0,60.9,53.0,84,65,35,29.98,29.80,25,11,33,0.00
2013-5-24,89.0,73.9,61.4,69.0,63.1,59.0,92,72,41,30.06,29.92,27,9,29,0.00
2013-5-25,85.8,73.4,60.8,66.0,62.6,58.0,92,71,44,30.05,29.86,25,8,33,0.00
2013-5-26,93.3,80.6,68.4,68.0,64.4,60.0,89,62,33,29.93,29.72,19,9,31,0.00
2013-5-27,96.8,82.6,70.7,68.0,65.1,62.0,79,57,34,29.76,29.50,18,8,32,0.11
2013-5-28,82.9,77.2,69.4,70.0,66.1,63.0,85,69,59,29.65,29.55,23,7,33,0.00
2013-5-29,84.7,77.1,70.7,69.0,65.9,61.0,85,70,51,29.65,29.41,29,11,42,0.02
2013-5-30,98.1,83.1,71.6,70.0,54.5,27.0,83,48,8,29.61,29.47,23,6,28,0.00
2013-5-31,101.6,85.9,69.9,69.0,60.5,48.0,75,45,21,29.62,29.41,26,6,32,0.00
2013-6-1,86.2,76.5,67.7,66.0,48.7,38.0,79,42,20,29.99,29.53,21,7,28,0.00
2013-6-2,82.9,70.2,57.2,52.0,48.1,44.0,79,49,26,30.09,29.89,15,4,23,0.00
2013-6-3,93.9,76.5,61.6,58.0,54.3,50.0,74,49,28,29.96,29.66,24,9,32,0.00
2013-6-4,95.7,80.1,65.8,68.0,63.4,56.0,90,59,34,29.82,29.64,26,11,31,0.07
2013-6-5,86.5,77.7,68.4,67.0,62.8,58.0,80,62,43,29.92,29.67,23,10,31,0.00
2013-6-6,81.0,71.0,62.1,63.0,56.8,51.0,89,63,39,29.95,29.86,15,7,25,0.06
2013-6-7,85.1,71.7,55.4,59.0,54.1,51.0,87,57,36,29.98,29.83,13,3,20,0.00
2013-6-8,89.7,75.8,63.2,61.0,55.6,52.0,92,53,31,29.89,29.62,18,8,40,0.60
2013-6-9,93.4,76.1,61.4,65.0,58.2,49.0,95,61,23,29.91,29.77,17,2,29,0.01
2013-6-10,100.1,84.7,67.1,67.0,59.6,49.0,85,47,19,29.86,29.74,12,3,21,0.00
2013-6-11,98.0,86.6,67.6,64.0,57.4,51.0,63,38,24,29.86,29.73,15,5,20,0.00
2013-6-12,99.3,86.8,73.3,66.0,63.2,60.0,71,48,28,29.88,29.76,17,5,20,0.00
2013-6-13,99.2,86.0,70.2,67.0,63.2,60.0,80,50,28,29.94,29.77,9,2,20,0.00
2013-6-14,93.3,82.7,70.0,68.0,62.7,57.0,85,54,32,29.89,29.81,12,3,18,0.00
2013-6-15,88.5,78.1,69.5,68.0,63.9,61.0,90,63,41,29.97,29.79,15,3,24,0.12
2013-6-16,96.7,83.1,68.2,71.0,66.0,63.0,89,60,35,29.95,29.74,14,4,20,0.00
2013-6-17,87.1,78.5,66.5,68.0,64.9,60.0,92,65,40,29.93,29.74,14,5,25,0.94
2013-6-18,87.4,77.9,68.7,68.0,64.2,58.0,91,65,41,29.98,29.84,12,4,18,0.00
2013-6-19,83.8,73.6,68.6,70.0,65.2,61.0,95,77,46,29.98,29.79,16,5,25,0.17
2013-6-20,95.3,82.3,68.0,72.0,66.1,63.0,88,61,34,29.89,29.75,18,8,31,0.00
2013-6-21,94.2,84.3,73.4,70.0,65.5,61.0,78,55,37,29.90,29.77,16,6,25,0.00
2013-6-22,95.0,85.2,73.2,67.0,63.0,60.0,68,49,34,29.86,29.69,21,8,30,0.00
2013-6-23,96.5,85.8,74.0,66.0,60.1,54.0,65,44,25,29.78,29.68,17,7,26,0.00
2013-6-24,94.4,85.1,74.6,66.0,61.5,55.0,63,46,33,29.83,29.70,16,7,26,0.00
2013-6-25,100.6,87.8,76.7,71.0,66.2,62.0,68,50,31,29.78,29.60,16,7,24,0.00
2013-6-26,102.7,89.7,73.4,69.0,64.8,60.0,71,45,29,29.78,29.66,16,5,21,0.00
2013-6-27,106.3,90.6,74.8,68.0,63.2,55.0,78,45,18,29.95,29.71,27,5,42,0.00
2013-6-28,100.8,88.0,74.8,62.0,58.7,52.0,62,40,21,29.92,29.80,21,6,24,0.00
2013-6-29,95.8,84.4,75.0,70.0,58.3,55.0,75,43,26,29.94,29.75,14,4,18,0.09
2013-6-30,90.1,80.9,69.5,60.0,53.6,49.0,69,40,25,29.95,29.82,15,6,21,0.00
2013-7-1,83.4,74.5,63.5,53.0,48.8,40.0,65,42,27,30.08,29.95,17,5,23,0.00
2013-7-2,87.2,74.0,58.7,50.0,43.4,38.0,58,36,18,30.12,29.96,10,2,19,0.00
2013-7-3,89.5,75.9,56.9,49.0,45.4,43.0,68,37,20,30.04,29.85,10,2,18,0.00
2013-7-4,93.6,80.6,64.6,54.0,50.1,47.0,65,37,20,29.94,29.77,18,6,21,0.00
2013-7-5,98.2,84.5,67.5,59.0,52.9,46.0,73,37,18,29.87,29.70,12,7,24,0.00
2013-7-6,97.5,84.2,72.2,58.0,54.9,48.0,58,39,19,29.83,29.71,22,8,31,0.00
2013-7-7,97.4,86.1,71.7,61.0,57.9,54.0,63,40,24,29.89,29.80,14,6,32,0.00
2013-7-8,99.6,84.8,71.0,67.0,61.3,58.0,72,48,27,29.95,29.83,16,5,24,0.00
2013-7-9,102.2,90.0,74.3,66.0,62.3,59.0,70,42,25,29.95,29.81,11,4,20,0.00
2013-7-10,101.4,89.4,74.3,63.0,60.4,58.0,62,39,25,29.93,29.78,13,3,20,0.00
2013-7-11,102.1,87.3,78.2,66.0,62.5,56.0,58,45,24,29.88,29.78,19,4,26,0.00
2013-7-12,101.8,88.0,73.7,68.0,63.9,58.0,79,49,24,29.86,29.75,17,7,23,0.00
2013-7-13,103.5,90.9,74.7,67.0,60.2,52.0,73,40,19,29.88,29.73,16,6,22,0.00
2013-7-14,86.7,74.3,64.1,64.0,61.1,55.0,95,66,46,30.01,29.77,34,10,38,0.34
2013-7-15,74.5,67.5,63.1,67.0,63.4,61.0,95,87,70,30.07,29.98,16,6,18,0.04
2013-7-16,73.8,69.1,66.0,70.0,67.5,65.0,97,94,86,30.18,30.03,16,6,24,1.20
2013-7-17,83.0,74.3,68.1,72.0,69.5,67.0,96,85,67,30.24,30.12,13,4,17,0.00
2013-7-18,88.2,78.3,67.6,71.0,67.7,64.0,97,72,45,30.15,29.95,14,3,19,0.00
2013-7-19,93.4,81.7,69.3,70.0,66.3,62.0,92,63,35,30.00,29.82,11,2,17,0.00
2013-7-20,95.9,82.5,70.4,71.0,65.8,61.0,93,61,33,29.89,29.73,14,2,16,0.00
2013-7-21,97.0,85.2,71.0,69.0,64.9,61.0,89,55,30,29.81,29.70,17,3,23,0.00
2013-7-22,96.4,86.0,73.4,70.0,67.6,65.0,80,56,40,29.82,29.70,13,3,20,0.00
2013-7-23,98.2,86.9,74.0,72.0,69.6,67.0,87,59,37,29.82,29.68,10,3,19,0.00
2013-7-24,94.1,83.6,74.6,72.0,68.1,65.0,86,62,39,29.93,29.73,22,6,35,0.00
2013-7-25,82.5,75.4,68.9,73.0,69.3,66.0,94,81,67,30.05,29.89,11,5,24,1.63
2013-7-26,86.5,78.9,74.0,74.0,69.0,64.0,91,73,49,30.01,29.84,17,4,21,0.01
2013-7-27,90.5,79.0,66.3,69.0,64.8,59.0,93,65,38,30.03,29.83,15,3,17,0.00
2013-7-28,88.7,78.1,66.2,67.0,62.6,53.0,94,63,30,29.91,29.78,15,6,23,0.00
2013-7-29,95.8,83.9,73.4,72.0,69.1,65.0,85,63,42,29.85,29.72,18,8,26,0.00
2013-7-30,92.8,83.8,74.4,73.0,68.4,64.0,78,61,47,29.96,29.80,15,5,26,0.00
2013-7-31,95.5,83.7,73.9,74.0,69.2,62.0,90,65,34,30.03,29.91,14,5,20,0.00
2013-8-1,96.3,84.0,72.5,72.0,68.1,64.0,88,61,35,30.01,29.84,12,4,16,0.00
2013-8-2,103.5,90.6,75.5,73.0,65.2,59.0,87,48,23,29.86,29.68,14,5,21,0.00
2013-8-3,102.7,89.8,74.5,64.0,61.7,58.0,68,41,25,29.87,29.74,19,5,22,0.00
2013-8-4,100.9,88.4,71.9,66.0,62.3,59.0,75,44,25,29.93,29.79,9,4,18,0.00
2013-8-5,103.8,88.3,73.2,68.0,62.8,58.0,74,45,22,29.86,29.66,13,4,24,0.00
2013-8-6,105.0,91.1,73.4,64.0,60.2,58.0,66,38,22,29.75,29.60,15,4,22,0.00
2013-8-7,95.0,85.9,71.8,70.0,64.3,61.0,90,50,35,29.80,29.67,15,6,33,0.05
2013-8-8,93.0,78.1,69.6,71.0,68.5,65.0,93,75,45,29.84,29.70,13,6,23,0.09
2013-8-9,86.5,76.5,67.8,70.0,66.5,64.0,94,73,49,30.02,29.82,12,4,32,0.01
2013-8-10,85.0,76.8,68.4,69.0,65.2,62.0,88,69,49,30.11,29.97,13,5,21,0.00
2013-8-11,95.5,79.3,66.7,70.0,66.7,64.0,93,69,37,30.06,29.89,13,2,27,0.56
2013-8-12,94.2,79.3,69.9,74.0,70.3,66.0,95,76,43,30.03,29.85,15,4,30,2.10
2013-8-13,86.1,76.5,70.2,71.0,68.6,67.0,90,78,55,30.01,29.88,11,3,17,0.08
2013-8-14,84.2,75.7,68.6,70.0,67.1,64.0,94,76,52,30.07,29.92,13,6,17,0.00
2013-8-15,90.1,76.8,68.1,72.0,67.2,63.0,92,74,47,30.00,29.87,11,4,19,0.00
2013-8-16,87.5,75.2,63.6,68.0,64.3,60.0,90,71,44,30.02,29.89,15,4,29,0.20
2013-8-17,85.0,75.4,66.5,67.0,64.3,62.0,88,70,48,30.07,29.94,14,6,18,0.00
2013-8-18,89.0,77.1,65.9,64.0,62.0,59.0,88,62,37,30.05,29.91,16,6,25,0.00
2013-8-19,91.1,78.9,66.2,63.0,61.7,60.0,85,58,37,29.98,29.86,18,5,24,0.00
2013-8-20,95.1,81.6,68.8,64.0,61.9,60.0,78,54,33,29.94,29.84,25,5,25,0.00
2013-8-21,93.9,80.3,66.0,63.0,58.9,56.0,79,51,28,30.00,29.90,11,2,19,0.00
2013-8-22,96.7,83.6,67.0,67.0,59.6,53.0,81,48,23,30.00,29.84,10,2,15,0.00
2013-8-23,97.7,85.0,70.7,67.0,63.1,58.0,79,51,27,29.95,29.81,14,4,24,0.00
2013-8-24,97.4,84.6,71.5,69.0,65.2,60.0,83,55,30,29.99,29.89,18,5,24,0.00
2013-8-25,95.9,84.2,71.3,68.0,64.8,61.0,81,55,31,30.07,29.97,17,6,22,0.00
2013-8-26,93.6,82.4,70.9,67.0,63.3,61.0,77,55,34,30.09,29.97,15,3,21,0.00
2013-8-27,91.0,79.2,67.1,70.0,63.6,60.0,79,60,37,30.03,29.91,14,5,24,0.00
2013-8-28,95.0,82.7,70.4,69.0,64.9,60.0,89,58,34,29.98,29.89,14,3,16,0.00
2013-8-29,98.9,85.1,68.7,63.0,59.2,55.0,75,45,23,29.99,29.86,10,2,19,0.00
2013-8-30,102.8,87.5,71.3,64.0,59.5,56.0,69,42,23,29.91,29.75,12,2,19,0.00
2013-8-31,104.3,89.0,72.3,61.0,56.6,54.0,60,36,19,29.81,29.68,9,2,15,0.00
2013-9-1,97.3,84.9,73.0,66.0,60.4,54.0,63,45,31,29.85,29.71,17,4,25,0.00
2013-9-2,93.1,81.2,71.0,71.0,61.7,50.0,85,55,26,29.98,29.84,16,6,19,0.00
2013-9-3,94.8,79.5,63.3,60.0,54.4,50.0,74,45,23,30.01,29.88,11,3,14,0.00
2013-9-4,95.5,80.6,65.2,63.0,54.9,41.0,70,45,16,30.05,29.93,10,2,20,0.00
2013-9-5,97.3,83.7,69.3,66.0,60.1,54.0,77,49,25,30.05,29.92,15,2,18,0.00
2013-9-6,99.3,85.2,70.9,65.0,60.2,55.0,67,45,27,30.01,29.86,11,3,20,0.00
2013-9-7,100.6,85.7,71.5,63.0,60.3,56.0,70,46,24,29.93,29.80,16,3,25,0.00
2013-9-8,96.5,83.3,69.5,64.0,59.8,54.0,78,49,24,29.89,29.76,15,4,21,0.00
2013-9-9,93.1,81.4,67.7,65.0,60.1,57.0,78,50,32,29.89,29.78,18,4,29,0.00
2013-9-10,90.8,80.3,69.0,66.0,63.0,59.0,81,57,38,30.00,29.86,19,5,25,0.00
2013-9-11,92.0,80.0,68.9,67.0,62.2,58.0,83,57,35,30.06,29.93,13,3,21,0.00
2013-9-12,94.1,81.9,69.0,65.0,59.9,56.0,76,50,28,30.04,29.88,12,2,17,0.00
2013-9-13,87.0,75.6,70.7,69.0,66.9,64.0,85,75,51,29.96,29.85,24,7,26,0.40
2013-9-14,85.5,75.3,68.0,68.0,65.3,60.0,88,72,55,29.95,29.83,13,5,17,0.00
2013-9-15,93.5,80.7,69.4,66.0,62.9,60.0,79,57,35,29.95,29.86,12,5,15,0.00
2013-9-16,89.4,75.1,68.8,69.0,66.4,64.0,94,76,44,30.06,29.94,17,5,24,0.79
2013-9-17,86.3,73.0,66.3,72.0,68.4,65.0,96,86,55,30.06,29.89,11,3,25,0.78
2013-9-18,90.1,79.6,70.7,70.0,65.9,59.0,91,66,37,29.91,29.77,14,3,20,0.00
2013-9-19,85.3,74.4,68.2,69.0,64.9,62.0,85,73,52,29.96,29.80,12,3,23,0.00
2013-9-20,70.5,67.1,60.9,64.0,58.3,53.0,86,74,57,30.02,29.84,21,5,25,0.00
2013-9-21,81.1,66.4,52.1,54.0,49.9,45.0,89,60,28,30.05,29.88,8,2,12,0.00
2013-9-22,82.1,68.0,56.1,53.0,50.2,48.0,83,57,30,29.90,29.73,13,3,20,0.00
2013-9-23,85.7,70.2,53.9,54.0,51.9,50.0,88,56,32,29.81,29.65,16,5,23,0.00
2013-9-24,86.8,73.8,62.9,54.0,48.1,42.0,62,43,21,29.97,29.81,14,3,18,0.00
2013-9-25,91.2,73.5,54.4,59.0,52.4,49.0,83,51,25,29.86,29.64,12,3,18,0.00
2013-9-26,92.9,78.3,63.5,62.0,58.7,55.0,85,54,29,29.75,29.65,23,6,31,0.00
2013-9-27,87.2,76.7,63.7,69.0,62.8,55.0,78,63,49,29.79,29.65,21,8,28,0.00
2013-9-28,77.5,67.7,54.6,71.0,53.8,42.0,94,64,32,30.10,29.70,20,6,25,1.53
2013-9-29,79.4,62.0,47.8,52.0,46.8,40.0,94,64,25,30.11,29.90,8,1,12,0.00
2013-9-30,84.9,67.0,52.3,58.0,53.3,49.0,89,64,36,29.89,29.71,16,5,23,0.00
2013-10-1,87.0,71.9,58.0,65.0,58.7,54.0,87,65,36,29.84,29.74,26,7,26,0.00
2013-10-2,85.4,74.9,64.9,70.0,64.6,60.0,90,72,53,29.85,29.72,19,7,24,0.00
2013-10-3,89.7,78.1,68.1,69.0,66.5,63.0,95,70,43,29.76,29.60,16,7,29,0.00
2013-10-4,89.2,78.1,63.6,67.0,64.4,46.0,84,64,46,29.87,29.59,15,7,25,0.56
2013-10-5,69.1,58.3,49.2,42.0,35.1,30.0,67,43,24,30.12,29.87,20,5,27,0.00
2013-10-6,77.3,60.1,47.0,43.0,34.1,28.0,66,41,19,30.18,30.04,16,4,23,0.00
2013-10-7,77.3,62.2,49.1,48.0,43.7,39.0,75,54,28,30.17,30.03,6,2,11,0.00
2013-10-8,82.3,64.2,48.2,47.0,43.6,41.0,77,51,25,30.05,29.87,15,4,20,0.00
2013-10-9,80.8,66.1,51.1,52.0,48.0,45.0,83,55,32,29.97,29.85,16,6,27,0.00
2013-10-10,81.8,69.9,55.5,62.0,56.5,51.0,87,64,45,29.93,29.70,19,9,32,0.00
2013-10-11,85.8,71.1,58.4,60.0,46.1,31.0,90,50,15,29.80,29.69,14,4,26,0.00
2013-10-12,73.6,63.6,55.0,50.0,44.7,35.0,64,51,40,30.13,29.81,16,6,25,0.00
2013-10-13,70.2,62.5,56.1,65.0,56.6,47.0,93,81,65,30.24,30.07,14,5,20,0.17
2013-10-14,75.1,69.1,65.3,69.0,66.3,64.0,96,90,79,30.08,29.77,11,6,15,0.14
2013-10-15,68.9,56.8,50.5,67.0,44.5,38.0,96,65,46,30.14,29.82,15,5,24,0.00
2013-10-16,53.1,48.7,40.4,42.0,38.6,36.0,91,69,55,30.21,30.10,12,3,16,0.01
2013-10-17,69.7,53.0,37.3,47.0,40.8,35.0,93,68,33,30.12,29.95,9,2,10,0.00
2013-10-18,57.4,48.8,38.4,50.0,43.5,35.0,94,82,67,30.24,29.91,23,6,27,0.07
2013-10-19,67.4,48.3,31.9,41.0,34.6,30.0,94,66,25,30.26,30.04,10,2,16,0.01
2013-10-20,74.2,55.8,38.2,52.0,43.4,35.0,91,66,36,30.04,29.75,15,4,20,0.00
2013-10-21,64.1,54.9,42.2,50.0,41.0,35.0,84,62,35,30.15,29.84,25,6,28,0.00
2013-10-22,79.9,57.7,37.8,44.0,38.9,35.0,90,57,22,30.15,30.02,14,2,18,0.00
2013-10-23,83.4,61.0,41.9,48.0,38.5,32.0,87,52,18,30.09,29.95,12,2,21,0.00
2013-10-24,61.8,54.7,46.1,48.0,41.2,37.0,89,62,44,30.34,30.05,22,7,28,0.00
2013-10-25,64.7,52.5,41.9,49.0,41.2,34.0,77,66,51,30.43,30.18,16,5,18,0.00
2013-10-26,74.1,59.5,51.1,59.0,51.1,40.0,92,75,49,30.19,30.01,13,4,19,0.00
2013-10-27,71.5,55.3,39.9,48.0,36.5,26.0,84,55,19,30.16,29.94,8,2,11,0.00
2013-10-28,67.6,59.2,49.7,64.0,57.5,47.0,98,94,84,30.02,29.88,20,7,23,0.01
2013-10-29,80.9,71.2,64.9,66.0,64.6,63.0,94,80,56,29.93,29.80,13,5,24,0.00
2013-10-30,77.6,71.4,63.0,68.0,64.4,52.0,95,80,43,29.87,29.64,12,5,29,0.04
2013-10-31,68.5,59.5,50.1,59.0,43.7,36.0,91,59,30,29.81,29.58,29,5,30,0.03
2013-11-1,70.5,56.7,44.5,45.0,37.7,30.0,85,54,24,30.18,29.76,15,4,22,0.00
2013-11-2,64.7,51.5,40.2,35.0,30.8,28.0,71,48,26,30.35,30.15,9,2,12,0.00
2013-11-3,66.4,52.3,36.7,44.0,36.8,32.0,85,59,32,30.14,29.86,18,6,27,0.01
2013-11-4,70.3,58.3,46.1,55.0,48.0,42.0,91,71,48,29.97,29.86,19,6,26,0.00
2013-11-5,71.4,60.5,48.0,63.0,56.9,40.0,96,88,72,30.06,29.78,16,7,28,0.90
2013-11-6,57.7,46.3,39.0,40.0,34.8,27.0,85,67,32,30.42,30.07,15,5,21,0.00
2013-11-7,66.4,47.7,32.4,38.0,33.9,30.0,95,65,26,30.53,30.35,10,2,13,0.00
2013-11-8,66.7,51.6,37.9,41.0,34.0,28.0,80,55,24,30.35,30.01,14,4,24,0.00
2013-11-9,64.9,53.0,41.1,50.0,44.2,39.0,92,74,53,30.21,30.01,10,4,16,0.00
2013-11-10,63.1,53.8,49.0,55.0,50.6,47.0,94,89,73,30.33,30.20,10,3,14,0.00
2013-11-11,67.3,55.6,41.8,57.0,51.7,37.0,97,87,67,30.47,30.14,18,4,28,0.00
2013-11-12,43.5,35.7,24.2,36.0,19.0,13.0,83,53,31,30.82,30.48,23,7,35,0.00
2013-11-13,52.5,35.0,17.8,21.0,16.8,15.0,88,53,24,30.75,30.32,10,3,23,0.00
2013-11-14,55.5,42.1,29.8,38.0,29.8,17.0,79,63,42,30.32,29.95,11,5,25,0.00
2013-11-15,67.0,50.9,31.6,47.0,37.0,29.0,91,62,37,29.97,29.69,15,4,18,0.00
2013-11-16,81.6,68.8,53.8,55.0,47.6,38.0,81,51,23,29.69,29.45,21,7,36,0.00
2013-11-17,70.4,61.5,52.3,49.0,38.5,24.0,71,45,28,30.06,29.53,17,5,26,0.00
2013-11-18,62.0,52.4,42.0,35.0,26.1,21.0,55,37,25,30.26,30.07,13,3,17,0.00
2013-11-19,64.3,55.6,47.9,42.0,38.1,33.0,65,52,43,30.17,29.86,20,9,26,0.00
2013-11-20,72.4,61.7,53.5,57.0,49.8,39.0,84,66,50,29.87,29.71,21,8,24,0.00
2013-11-21,73.3,50.4,30.1,61.0,43.3,21.0,94,77,42,30.46,29.81,24,9,34,0.00
2013-11-22,30.6,28.9,27.4,26.0,22.1,17.0,86,76,66,30.66,30.45,21,8,29,0.00
2013-11-23,37.7,33.7,30.6,25.0,22.2,17.0,76,63,48,30.74,30.63,14,6,23,0.00
2013-11-24,32.6,26.4,23.8,25.0,23.1,20.0,93,88,62,30.73,30.37,13,4,19,0.00
2013-11-25,32.9,29.9,25.4,31.0,28.4,24.0,96,94,90,30.37,30.24,10,4,14,0.12
2013-11-26,45.8,34.3,26.0,30.0,26.1,23.0,91,73,50,30.51,30.30,10,4,14,0.16
2013-11-27,42.3,31.6,20.1,29.0,23.8,17.0,89,74,57,30.53,30.32,10,3,12,0.00
2013-11-28,56.7,39.6,28.1,38.0,29.9,25.0,90,71,35,30.41,30.30,9,2,12,0.00
2013-11-29,58.9,42.5,29.8,39.0,32.6,27.0,88,70,41,30.45,30.25,12,4,20,0.00
2013-11-30,61.2,46.0,34.2,44.0,39.3,33.0,95,79,52,30.26,30.10,7,2,13,0.00
2013-12-1,61.2,47.7,39.2,43.0,39.1,36.0,90,74,45,30.11,29.92,10,2,14,0.00
2013-12-2,69.3,48.4,31.8,44.0,36.2,30.0,94,68,27,29.91,29.61,7,1,10,0.00
2013-12-3,76.7,52.3,35.8,43.0,37.7,33.0,91,63,21,29.61,29.46,10,1,14,0.00
2013-12-4,48.3,39.4,30.2,36.0,28.2,16.0,84,65,52,30.11,29.47,20,6,22,0.00
2013-12-5,30.0,23.4,17.9,15.0,10.5,5.0,85,59,45,30.38,30.11,18,9,29,0.00
2013-12-6,25.1,18.5,14.1,15.0,10.9,3.0,89,73,59,30.69,30.35,15,5,18,0.00
2013-12-7,18.2,14.3,8.6,11.0,5.0,0.0,74,67,62,30.73,30.36,12,5,19,0.00
2013-12-8,31.7,22.7,16.6,25.0,18.4,11.0,89,84,75,30.36,30.02,16,5,23,0.00
2013-12-9,25.1,21.6,11.0,21.0,15.5,8.0,90,77,66,30.53,30.25,13,4,19,0.00
2013-12-10,35.2,22.0,6.0,27.0,16.4,3.0,89,79,64,30.54,30.27,15,3,18,0.00
2013-12-11,39.7,30.3,23.2,27.0,22.8,19.0,89,74,55,30.68,30.28,22,5,27,0.00
2013-12-12,36.6,29.3,18.7,33.0,24.5,16.0,89,82,70,30.68,30.25,10,2,14,0.01
2013-12-13,55.5,43.1,35.4,42.0,37.4,32.0,92,81,59,30.24,29.72,13,6,20,0.01
2013-12-14,48.8,37.3,28.5,32.0,25.9,21.0,82,66,34,30.35,29.85,20,6,24,0.00
2013-12-15,60.0,41.3,26.3,33.0,27.3,22.0,84,61,30,30.35,30.17,11,2,14,0.00
2013-12-16,66.2,44.4,27.9,37.0,29.6,23.0,84,60,26,30.22,30.12,7,1,12,0.00
2013-12-17,63.4,45.8,33.0,33.0,29.5,25.0,80,56,29,30.33,30.20,16,3,18,0.00
2013-12-18,69.1,46.9,27.2,41.0,33.4,24.0,88,64,29,30.28,29.83,12,4,21,0.00
2013-12-19,68.3,54.9,44.7,49.0,45.0,41.0,92,72,41,29.82,29.58,13,5,22,0.00
2013-12-20,50.6,33.4,28.1,45.0,25.5,17.0,92,74,58,30.03,29.66,16,6,31,0.03
2013-12-21,31.5,30.4,27.9,30.0,28.4,25.0,95,92,86,29.92,29.64,0,0,0,0.00
2013-12-22,35.5,28.7,24.7,30.0,25.2,21.0,94,87,78,30.42,29.92,5,0,10,0.01
2013-12-23,36.2,29.0,23.3,31.0,26.5,22.0,94,90,80,30.61,30.41,11,4,17,0.02
2013-12-24,44.9,31.3,24.3,38.0,29.3,23.0,97,92,78,30.59,30.16,13,5,24,0.00
2013-12-25,49.3,37.3,29.7,34.0,30.5,25.0,95,78,51,30.48,30.25,15,4,20,0.00
2013-12-26,55.3,37.3,22.4,34.0,26.2,20.0,93,68,31,30.48,30.32,8,1,14,0.00
2013-12-27,57.5,39.3,24.5,37.0,28.2,21.0,89,67,38,30.44,30.31,9,1,15,0.00
2013-12-28,57.3,40.6,28.1,44.0,33.0,25.0,95,76,44,30.30,29.92,11,3,19,0.00
2013-12-29,40.6,29.5,20.9,40.0,20.8,13.0,96,71,57,30.39,29.92,26,8,35,0.01
2013-12-30,46.8,28.5,14.6,25.0,17.8,11.0,88,67,39,30.47,30.31,9,1,11,0.00
2013-12-31,55.5,37.5,22.7,32.0,25.8,19.0,87,66,33,30.47,30.09,14,4,21,0.00
2014-1-1,56.8,36.1,24.9,34.0,27.2,17.0,93,73,36,30.42,29.90,18,6,30,0.00
2014-1-2,44.1,29.1,17.9,24.0,19.4,13.0,83,68,45,30.58,30.41,10,3,16,0.00